AUL148 ULLI-ULAA

Flight info

Callsign AUL148
Flight time 1h 11m
Altitude 35000
Route RELNI1A RELNI T693 DISUP DCT MAKOG MAKOG2L
Aircraft B738/M-SDE2E3FGHIRWXY/LB1

Departure

Time 2026-04-26 10:56
Airport Pulkovo Airport (ULLI)

Arrival

Time 2026-04-26 12:07
Airport Talagi Airport (ULAA)
Time Latitude Longitude Altitude Speed Heading
2026-04-26 10:14 59.80111 30.26479 89 ft 0 kts 287°
2026-04-26 10:48 59.80114 30.26455 82 ft 6 kts 287°
2026-04-26 10:48 59.80135 30.26365 82 ft 5 kts 318°
2026-04-26 10:48 59.80148 30.26359 82 ft 5 kts 356°
2026-04-26 10:48 59.80199 30.26383 83 ft 9 kts 16°
2026-04-26 10:49 59.80261 30.26420 81 ft 10 kts 16°
2026-04-26 10:49 59.80332 30.26450 86 ft 10 kts
2026-04-26 10:49 59.80402 30.26473 84 ft 10 kts 16°
2026-04-26 10:49 59.80438 30.26573 83 ft 10 kts 97°
2026-04-26 10:50 59.80419 30.26699 80 ft 9 kts 107°
2026-04-26 10:50 59.80407 30.26781 80 ft 9 kts 107°
2026-04-26 10:50 59.80383 30.26943 83 ft 9 kts 107°
2026-04-26 10:50 59.80366 30.27059 80 ft 9 kts 106°
2026-04-26 10:51 59.80349 30.27172 80 ft 8 kts 106°
2026-04-26 10:51 59.80316 30.27388 68 ft 8 kts 107°
2026-04-26 10:51 59.80297 30.27520 86 ft 12 kts 107°
2026-04-26 10:52 59.80272 30.27686 88 ft 12 kts 107°
2026-04-26 10:52 59.80248 30.27847 85 ft 12 kts 106°
2026-04-26 10:52 59.80224 30.28004 81 ft 12 kts 107°
2026-04-26 10:52 59.80199 30.28173 79 ft 13 kts 107°
2026-04-26 10:53 59.80174 30.28339 84 ft 12 kts 106°
2026-04-26 10:53 59.80151 30.28501 81 ft 12 kts 98°
2026-04-26 10:53 59.80190 30.28636 83 ft 12 kts 39°
2026-04-26 10:54 59.80270 30.28824 75 ft 8 kts 50°
2026-04-26 10:54 59.80316 30.28878 83 ft 8 kts 358°
2026-04-26 10:54 59.80346 30.28809 80 ft 7 kts 272°
2026-04-26 10:54 59.80349 30.28720 78 ft 1 kts 286°
2026-04-26 10:55 59.80354 30.28689 83 ft 18 kts 286°
2026-04-26 10:55 59.80458 30.27988 83 ft 86 kts 286°
2026-04-26 10:55 59.80690 30.26465 98 ft 141 kts 288°
2026-04-26 10:55 59.80862 30.25194 389 ft 147 kts 288°
2026-04-26 10:56 59.81267 30.22570 1306 ft 151 kts 279°
2026-04-26 10:56 59.81573 30.20554 2025 ft 152 kts 278°
2026-04-26 10:56 59.81882 30.18333 2380 ft 181 kts 278°
2026-04-26 10:56 59.82233 30.15850 2790 ft 199 kts 280°
2026-04-26 10:57 59.82632 30.13137 3288 ft 208 kts 281°
2026-04-26 10:57 59.83051 30.10356 4031 ft 211 kts 281°
2026-04-26 10:57 59.83465 30.07593 4995 ft 207 kts 281°
2026-04-26 10:57 59.83873 30.04835 5838 ft 209 kts 282°
2026-04-26 10:58 59.84426 30.02129 6563 ft 219 kts 301°
2026-04-26 10:58 59.85610 30.00099 7315 ft 235 kts 326°
2026-04-26 10:58 59.87243 29.99340 8075 ft 253 kts 355°
2026-04-26 10:58 59.89013 29.99977 8890 ft 262 kts
2026-04-26 10:59 59.90781 30.01011 9608 ft 268 kts 13°
2026-04-26 10:59 59.92409 30.02981 10251 ft 284 kts 43°
2026-04-26 10:59 59.93408 30.06402 10984 ft 291 kts 76°
2026-04-26 10:59 59.93412 30.10336 11715 ft 289 kts 107°
2026-04-26 11:00 59.92847 30.14168 12473 ft 291 kts 111°
2026-04-26 11:00 59.92226 30.18090 13256 ft 294 kts 112°
2026-04-26 11:00 59.91456 30.21878 13668 ft 309 kts 118°
2026-04-26 11:00 59.90508 30.25909 13854 ft 333 kts 119°
2026-04-26 11:01 59.89502 30.30175 14311 ft 346 kts 118°
2026-04-26 11:01 59.88686 30.34745 14953 ft 358 kts 102°
2026-04-26 11:01 59.88454 30.39839 15166 ft 381 kts 94°
2026-04-26 11:01 59.88358 30.45224 15586 ft 394 kts 93°
2026-04-26 11:02 59.88259 30.50708 16308 ft 398 kts 93°
2026-04-26 11:02 59.88123 30.56226 17091 ft 400 kts 94°
2026-04-26 11:02 59.87959 30.61777 17779 ft 404 kts 94°
2026-04-26 11:02 59.88042 30.67402 18343 ft 410 kts 78°
2026-04-26 11:03 59.89012 30.72773 18806 ft 415 kts 58°
2026-04-26 11:03 59.90562 30.77603 19470 ft 415 kts 53°
2026-04-26 11:03 59.92194 30.82394 20058 ft 419 kts 53°
2026-04-26 11:03 59.93857 30.87232 20601 ft 425 kts 53°
2026-04-26 11:04 59.94960 30.90464 20982 ft 427 kts 53°
2026-04-26 11:04 59.96631 30.95414 21554 ft 431 kts 53°
2026-04-26 11:04 59.98299 31.00417 22100 ft 436 kts 53°
2026-04-26 11:04 59.99977 31.05494 22630 ft 440 kts 53°
2026-04-26 11:05 60.01665 31.10632 23139 ft 444 kts 53°
2026-04-26 11:05 60.03363 31.15821 23595 ft 447 kts 53°
2026-04-26 11:05 60.05066 31.21035 24023 ft 450 kts 54°
2026-04-26 11:05 60.06788 31.26319 24440 ft 454 kts 54°
2026-04-26 11:06 60.08518 31.31636 24875 ft 457 kts 54°
2026-04-26 11:06 60.10260 31.36997 25303 ft 460 kts 54°
2026-04-26 11:06 60.12009 31.42393 25691 ft 464 kts 54°
2026-04-26 11:06 60.13843 31.47730 26039 ft 464 kts 45°
2026-04-26 11:07 60.16193 31.51965 26426 ft 458 kts 28°
2026-04-26 11:07 60.18999 31.54834 26868 ft 452 kts 18°
2026-04-26 11:07 60.21946 31.57320 27238 ft 454 kts 17°
2026-04-26 11:07 60.24884 31.59725 27565 ft 458 kts 17°
2026-04-26 11:08 60.27811 31.62131 27919 ft 461 kts 17°
2026-04-26 11:08 60.30785 31.64616 28277 ft 464 kts 17°
2026-04-26 11:08 60.33766 31.67149 28637 ft 467 kts 18°
2026-04-26 11:08 60.36764 31.69727 28964 ft 470 kts 18°
2026-04-26 11:09 60.39782 31.72341 29296 ft 472 kts 18°
2026-04-26 11:09 60.42803 31.74970 29609 ft 474 kts 18°
2026-04-26 11:09 60.45832 31.77612 30026 ft 472 kts 18°
2026-04-26 11:09 60.48842 31.80243 30501 ft 469 kts 19°
2026-04-26 11:10 60.51837 31.82863 30939 ft 468 kts 19°
2026-04-26 11:10 60.54822 31.85475 31300 ft 468 kts 19°
2026-04-26 11:10 60.57816 31.88099 31646 ft 468 kts 19°
2026-04-26 11:10 60.60803 31.90723 32012 ft 467 kts 20°
2026-04-26 11:11 60.63786 31.93347 32405 ft 466 kts 20°
2026-04-26 11:11 60.66759 31.95970 32774 ft 465 kts 20°
2026-04-26 11:11 60.69773 31.98310 33084 ft 462 kts 13°
2026-04-26 11:11 60.72896 31.99756 33375 ft 459 kts
2026-04-26 11:12 60.76065 32.00212 33648 ft 455 kts 359°
2026-04-26 11:12 60.79193 32.00368 33895 ft 455 kts 358°
2026-04-26 11:12 60.82367 32.00495 34115 ft 456 kts 358°
2026-04-26 11:12 60.85539 32.00667 34342 ft 457 kts 359°
2026-04-26 11:13 60.91952 32.01146 34346 ft 462 kts
2026-04-26 11:13 60.95141 32.02155 34339 ft 465 kts 14°
2026-04-26 11:13 60.98140 32.04631 34348 ft 465 kts 26°
2026-04-26 11:14 61.00818 32.08384 34342 ft 468 kts 39°
2026-04-26 11:14 61.03209 32.12948 34361 ft 468 kts 41°
2026-04-26 11:14 61.07884 32.22356 34355 ft 469 kts 43°
2026-04-26 11:15 61.12380 32.31431 34353 ft 470 kts 42°
2026-04-26 11:15 61.17092 32.40835 34357 ft 470 kts 42°
2026-04-26 11:16 61.21817 32.50224 34373 ft 471 kts 42°
2026-04-26 11:16 61.26550 32.59653 34373 ft 473 kts 42°
2026-04-26 11:17 61.31292 32.69145 34359 ft 473 kts 42°
2026-04-26 11:17 61.36032 32.78680 34369 ft 473 kts 42°
2026-04-26 11:18 61.40756 32.88227 34377 ft 473 kts 43°
2026-04-26 11:18 61.45473 32.97802 34379 ft 472 kts 43°
2026-04-26 11:19 61.50171 33.07382 34387 ft 472 kts 43°
2026-04-26 11:19 61.54865 33.16996 34387 ft 471 kts 43°
2026-04-26 11:20 61.58751 33.24987 34394 ft 470 kts 43°
2026-04-26 11:20 61.64177 33.36196 34398 ft 469 kts 43°
2026-04-26 11:21 61.68818 33.45829 34406 ft 469 kts 43°
2026-04-26 11:21 61.73457 33.55499 34412 ft 469 kts 43°
2026-04-26 11:22 61.78081 33.65184 34412 ft 468 kts 43°
2026-04-26 11:22 61.82699 33.74897 34416 ft 468 kts 43°
2026-04-26 11:23 61.87311 33.84645 34416 ft 468 kts 44°
2026-04-26 11:23 61.91913 33.94413 34418 ft 468 kts 44°
2026-04-26 11:24 61.96505 34.04204 34416 ft 468 kts 44°
2026-04-26 11:24 62.01089 34.14023 34415 ft 468 kts 44°
2026-04-26 11:25 62.05674 34.23887 34421 ft 468 kts 44°
2026-04-26 11:25 62.10226 34.33726 34428 ft 469 kts 44°
2026-04-26 11:26 62.14801 34.43660 34433 ft 469 kts 44°
2026-04-26 11:26 62.19375 34.53639 34440 ft 469 kts 44°
2026-04-26 11:27 62.23946 34.63656 34445 ft 470 kts 44°
2026-04-26 11:27 62.28513 34.73710 34443 ft 470 kts 44°
2026-04-26 11:28 62.33065 34.83777 34447 ft 470 kts 44°
2026-04-26 11:28 62.37621 34.93902 34449 ft 471 kts 45°
2026-04-26 11:29 62.42180 35.04080 34459 ft 471 kts 45°
2026-04-26 11:29 62.46725 35.14273 34456 ft 471 kts 45°
2026-04-26 11:30 62.50498 35.22772 34464 ft 471 kts 45°
2026-04-26 11:30 62.55768 35.34697 34463 ft 472 kts 45°
2026-04-26 11:31 62.60270 35.44938 34466 ft 472 kts 45°
2026-04-26 11:31 62.64788 35.55265 34477 ft 471 kts 45°
2026-04-26 11:32 62.69304 35.65634 34478 ft 472 kts 45°
2026-04-26 11:32 62.73809 35.76027 34483 ft 471 kts 45°
2026-04-26 11:33 62.78302 35.86442 34491 ft 471 kts 45°
2026-04-26 11:33 62.82791 35.96898 34495 ft 471 kts 46°
2026-04-26 11:34 62.87270 36.07381 34500 ft 471 kts 46°
2026-04-26 11:34 62.91740 36.17893 34505 ft 471 kts 46°
2026-04-26 11:35 62.96178 36.28380 34511 ft 471 kts 46°
2026-04-26 11:35 62.99909 36.37234 34509 ft 471 kts 46°
2026-04-26 11:36 63.05071 36.49545 34519 ft 471 kts 46°
2026-04-26 11:36 63.09506 36.60177 34519 ft 471 kts 46°
2026-04-26 11:37 63.13935 36.70846 34526 ft 471 kts 46°
2026-04-26 11:37 63.18356 36.81550 34533 ft 471 kts 46°
2026-04-26 11:38 63.22773 36.92293 34107 ft 477 kts 47°
2026-04-26 11:38 63.25009 36.97751 33540 ft 476 kts 46°
2026-04-26 11:38 63.27222 37.03170 33015 ft 472 kts 46°
2026-04-26 11:39 63.29413 37.08547 32507 ft 467 kts 47°
2026-04-26 11:39 63.31582 37.13883 32022 ft 463 kts 47°
2026-04-26 11:39 63.33731 37.19182 31553 ft 459 kts 47°
2026-04-26 11:39 63.35856 37.24429 31080 ft 453 kts 49°
2026-04-26 11:40 63.37932 37.29570 30637 ft 449 kts 49°
2026-04-26 11:40 63.40008 37.34723 30189 ft 445 kts 49°
2026-04-26 11:40 63.42068 37.39850 29753 ft 442 kts 49°
2026-04-26 11:40 63.44112 37.44950 29219 ft 438 kts 49°
2026-04-26 11:41 63.46131 37.50000 28697 ft 434 kts 49°
2026-04-26 11:42 63.59647 37.84099 25542 ft 405 kts 50°
2026-04-26 11:43 63.61505 37.88826 25111 ft 402 kts 50°
2026-04-26 11:43 63.63350 37.93533 24682 ft 399 kts 50°
2026-04-26 11:43 63.65179 37.98208 24257 ft 397 kts 50°
2026-04-26 11:43 63.66993 38.02856 23820 ft 394 kts 50°
2026-04-26 11:44 63.68807 38.07511 23390 ft 393 kts 50°
2026-04-26 11:44 63.70197 38.11087 23060 ft 391 kts 50°
2026-04-26 11:44 63.71986 38.15696 22558 ft 389 kts 50°
2026-04-26 11:44 63.73759 38.20274 22109 ft 386 kts 50°
2026-04-26 11:45 63.75517 38.24821 21697 ft 383 kts 50°
2026-04-26 11:45 63.77225 38.29250 21267 ft 380 kts 50°
2026-04-26 11:45 63.78954 38.33742 20848 ft 377 kts 50°
2026-04-26 11:45 63.80667 38.38199 20435 ft 374 kts 50°
2026-04-26 11:46 63.82371 38.42645 20027 ft 372 kts 50°
2026-04-26 11:46 63.84057 38.47049 19626 ft 369 kts 50°
2026-04-26 11:46 63.85723 38.51414 19231 ft 367 kts 50°
2026-04-26 11:46 63.87391 38.55788 18824 ft 365 kts 50°
2026-04-26 11:47 63.89042 38.60131 18430 ft 363 kts 50°
2026-04-26 11:47 63.90689 38.64468 18027 ft 361 kts 50°
2026-04-26 11:47 63.92323 38.68780 17596 ft 360 kts 50°
2026-04-26 11:47 63.93953 38.73092 17150 ft 357 kts 50°
2026-04-26 11:48 63.95563 38.77357 16753 ft 354 kts 50°
2026-04-26 11:48 63.97158 38.81592 16360 ft 351 kts 50°
2026-04-26 11:48 63.98737 38.85792 15956 ft 348 kts 50°
2026-04-26 11:48 64.00302 38.89961 15591 ft 344 kts 50°
2026-04-26 11:49 64.01850 38.94093 15199 ft 342 kts 50°
2026-04-26 11:49 64.03388 38.98202 14826 ft 339 kts 50°
2026-04-26 11:49 64.04915 39.02294 14452 ft 337 kts 50°
2026-04-26 11:49 64.06444 39.06329 14088 ft 336 kts 47°
2026-04-26 11:50 64.08163 39.09903 13770 ft 333 kts 39°
2026-04-26 11:50 64.09982 39.13167 13396 ft 331 kts 38°
2026-04-26 11:50 64.11815 39.16340 12995 ft 329 kts 37°
2026-04-26 11:50 64.13627 39.19490 12611 ft 326 kts 38°
2026-04-26 11:51 64.15392 39.22596 12242 ft 323 kts 38°
2026-04-26 11:51 64.17153 39.25732 11877 ft 320 kts 38°
2026-04-26 11:51 64.18897 39.28868 11507 ft 317 kts 38°
2026-04-26 11:51 64.20627 39.31999 11141 ft 315 kts 39°
2026-04-26 11:52 64.22340 39.35113 10779 ft 313 kts 39°
2026-04-26 11:52 64.23467 39.37168 10546 ft 311 kts 39°
2026-04-26 11:52 64.25158 39.40257 10186 ft 310 kts 39°
2026-04-26 11:52 64.26832 39.43321 9970 ft 303 kts 39°
2026-04-26 11:53 64.28454 39.46296 9837 ft 294 kts 39°
2026-04-26 11:53 64.30025 39.49181 9710 ft 285 kts 39°
2026-04-26 11:53 64.31556 39.51999 9563 ft 278 kts 39°
2026-04-26 11:54 64.34557 39.57535 8970 ft 274 kts 39°
2026-04-26 11:54 64.36039 39.60274 8689 ft 272 kts 39°
2026-04-26 11:54 64.37510 39.62995 8416 ft 269 kts 39°
2026-04-26 11:54 64.38966 39.65692 8138 ft 267 kts 39°
2026-04-26 11:55 64.40413 39.68378 7867 ft 266 kts 39°
2026-04-26 11:55 64.41843 39.71035 7595 ft 264 kts 39°
2026-04-26 11:55 64.43266 39.73684 7337 ft 262 kts 39°
2026-04-26 11:55 64.44762 39.76067 7096 ft 258 kts 31°
2026-04-26 11:56 64.46326 39.78086 6829 ft 257 kts 29°
2026-04-26 11:56 64.47895 39.80044 6573 ft 255 kts 29°
2026-04-26 11:56 64.49447 39.81994 6314 ft 253 kts 29°
2026-04-26 11:56 64.50991 39.83957 6078 ft 253 kts 29°
2026-04-26 11:57 64.52518 39.85917 5807 ft 254 kts 30°
2026-04-26 11:57 64.54066 39.87920 5525 ft 253 kts 30°
2026-04-26 11:57 64.55594 39.89902 5273 ft 250 kts 30°
2026-04-26 11:57 64.57097 39.91860 5025 ft 244 kts 31°
2026-04-26 11:58 64.58527 39.93728 4907 ft 225 kts 31°
2026-04-26 11:58 64.59834 39.95438 4758 ft 207 kts 31°
2026-04-26 11:58 64.61034 39.97008 4624 ft 189 kts 31°
2026-04-26 11:58 64.62136 39.98452 4501 ft 174 kts 31°
2026-04-26 11:59 64.63061 40.00204 4086 ft 170 kts 61°
2026-04-26 11:59 64.63306 40.02755 3927 ft 158 kts 96°
2026-04-26 11:59 64.63167 40.05326 3848 ft 168 kts 95°
2026-04-26 11:59 64.63044 40.08054 3761 ft 169 kts 95°
2026-04-26 12:00 64.62981 40.10771 3670 ft 167 kts 91°
2026-04-26 12:00 64.62929 40.13390 3589 ft 159 kts 93°
2026-04-26 12:00 64.62836 40.15919 3532 ft 151 kts 95°
2026-04-26 12:00 64.62726 40.18327 3471 ft 149 kts 95°
2026-04-26 12:01 64.62610 40.20686 3376 ft 146 kts 95°
2026-04-26 12:01 64.62490 40.23040 3270 ft 143 kts 96°
2026-04-26 12:01 64.62371 40.25355 3286 ft 146 kts 96°
2026-04-26 12:01 64.62249 40.27694 3279 ft 145 kts 96°
2026-04-26 12:02 64.62125 40.30067 3128 ft 149 kts 96°
2026-04-26 12:02 64.62002 40.32441 2954 ft 147 kts 96°
2026-04-26 12:02 64.61882 40.34747 2785 ft 143 kts 96°
2026-04-26 12:02 64.61764 40.37044 2631 ft 143 kts 96°
2026-04-26 12:03 64.61645 40.39353 2473 ft 143 kts 96°
2026-04-26 12:03 64.61531 40.41587 2316 ft 143 kts 96°
2026-04-26 12:03 64.61413 40.43892 2151 ft 144 kts 95°
2026-04-26 12:03 64.61294 40.46230 2014 ft 143 kts 96°
2026-04-26 12:04 64.61178 40.48513 1914 ft 143 kts 95°
2026-04-26 12:04 64.61059 40.50855 1723 ft 146 kts 95°
2026-04-26 12:04 64.60941 40.53194 1502 ft 144 kts 95°
2026-04-26 12:04 64.60826 40.55481 1300 ft 141 kts 95°
2026-04-26 12:05 64.60713 40.57752 1103 ft 141 kts 95°
2026-04-26 12:05 64.60600 40.60038 871 ft 143 kts 95°
2026-04-26 12:05 64.60486 40.62336 654 ft 142 kts 95°
2026-04-26 12:05 64.60373 40.64601 432 ft 141 kts 95°
2026-04-26 12:06 64.60264 40.66857 253 ft 141 kts 95°
2026-04-26 12:06 64.60156 40.69123 60 ft 140 kts 95°
2026-04-26 12:06 64.60054 40.71221 36 ft 117 kts 96°
2026-04-26 12:06 64.59974 40.72767 37 ft 73 kts 96°
2026-04-26 12:07 64.59935 40.73603 34 ft 22 kts 97°
2026-04-26 12:07 64.59908 40.73729 35 ft 2 kts 179°
2026-04-26 12:07 64.59866 40.73717 38 ft 10 kts 187°
2026-04-26 12:07 64.59761 40.73691 39 ft 18 kts 187°
2026-04-26 12:08 64.59732 40.73655 39 ft 5 kts 228°